Decatur, IL

1:24 AM CDT on April 24, 2017 (GMT -0500)
Decatur

Weather History for KDEC - October, 2012

Change the Weather History Date:

Tuesday, October 23, 2012

  Actual Average Record
Temperature  
Mean Temperature 66 °F 52 °F  
Max Temperature 71 °F 63 °F 80 °F (2010)
Min Temperature 61 °F 41 °F 32 °F (2006)
Degree Days  
Heating Degree Days 0 13  
Month to date heating degree days 245 230  
Since 1 July heating degree days 325 303  
Cooling Degree Days 1 0  
Month to date cooling degree days 2 14  
Year to date cooling degree days 1423 1043  
Growing Degree Days 16 (Base 50)    
Moisture  
Dew Point 60 °F    
Average Humidity 80    
Maximum Humidity 87    
Minimum Humidity 73    
Precipitation  
Precipitation 0.34 in 0.12 in 1.15 in (2008)
Month to date precipitation 3.25 2.36  
Year to date precipitation 22.37 31.56  
Sea Level Pressure  
Sea Level Pressure 29.93 in    
Wind  
Wind Speed 12 mph (South)    
Max Wind Speed 21 mph    
Max Gust Speed 25 mph    
Visibility 9 miles    
Events Rain , Thunderstorm    
T = Trace of Precipitation, MM = Missing Value Source: NWS Daily Summary

Daily Weather History Graph

Daily Weather History Graph

Search for Another Location

Airport or City:

Trip Planner

Search our weather history database for the weather conditions in past years. The results will help you decide how hot, cold, wet, or windy it might be!

Date:

Astronomy

Oct. 23, 2012 Rise Set
Actual Time 7:14 AM CDT 6:04 PM CDT
Civil Twilight 6:47 AM CDT 6:31 PM CDT
Nautical Twilight 6:15 AM CDT 7:03 PM CDT
Astronomical Twilight 5:44 AM CDT 7:34 PM CDT
Moon 2:47 PM CDT (10/23) 1:07 AM CDT (10/23)
Length of Visible Light 11h 44m
Length of Day
10h 49m
Waxing Gibbous, 67% of the Moon is Illuminated
Oct 23
Waxing Gibbous
Oct 29
Full
Nov 6
Last Quarter
Nov 13
New
Nov 20
First Quarter

Hourly Weather History & Observations

Time (CDT) Temp. Dew Point Humidity Pressure Visibility Wind Dir Wind Speed Gust Speed Precip Events Conditions
12:54 AM 64.9 °F 57.0 °F 75% 29.92 in 10.0 mi South 9.2 mph - N/A   Clear
1:54 AM 64.0 °F 55.9 °F 75% 29.93 in 10.0 mi South 8.1 mph - N/A   Clear
2:54 AM 63.0 °F 55.9 °F 78% 29.93 in 10.0 mi South 9.2 mph - N/A   Clear
3:54 AM 63.0 °F 55.9 °F 78% 29.93 in 10.0 mi South 10.4 mph - N/A   Overcast
4:21 AM 64.4 °F 55.4 °F 73% 29.93 in 10.0 mi SSW 10.4 mph - N/A Thunderstorm Thunderstorm
4:54 AM 61.0 °F 59.0 °F 93% 29.93 in 2.5 mi South 10.4 mph - 0.11 in Rain , Thunderstorm Thunderstorms and Rain
5:09 AM 62.6 °F 60.8 °F 94% 29.93 in 10.0 mi SW 10.4 mph - 0.11 in Rain , Thunderstorm Light Thunderstorms and Rain
5:54 AM 62.1 °F 59.0 °F 90% 29.93 in 10.0 mi South 9.2 mph - 0.11 in   Mostly Cloudy
7:54 AM 63.0 °F 57.9 °F 84% 29.94 in 10.0 mi SSW 11.5 mph - N/A   Overcast
8:54 AM 64.0 °F 57.0 °F 78% 29.97 in 10.0 mi SW 11.5 mph - N/A   Mostly Cloudy
9:54 AM 64.0 °F 57.9 °F 80% 29.97 in 10.0 mi SSW 10.4 mph - 0.00 in   Overcast
10:54 AM 63.0 °F 61.0 °F 93% 29.97 in 6.0 mi SW 9.2 mph - 0.07 in Rain Light Rain
11:54 AM 64.9 °F 62.1 °F 90% 29.96 in 7.0 mi South 9.2 mph - 0.04 in Rain Light Rain
12:54 PM 66.0 °F 63.0 °F 90% 29.96 in 10.0 mi South 12.7 mph - 0.01 in   Overcast
1:54 PM 66.0 °F 62.1 °F 87% 29.94 in 10.0 mi South 11.5 mph - N/A   Overcast
2:54 PM 71.1 °F 63.0 °F 75% 29.91 in 10.0 mi South 16.1 mph 24.2 mph N/A   Clear
3:54 PM 70.0 °F 63.0 °F 78% 29.90 in 10.0 mi South 16.1 mph 23.0 mph N/A   Mostly Cloudy
4:02 PM 69.8 °F 62.6 °F 78% 29.91 in 10.0 mi South 12.7 mph 21.9 mph N/A   Mostly Cloudy
4:54 PM 69.1 °F 63.0 °F 81% 29.90 in 10.0 mi South 20.7 mph 25.3 mph N/A   Overcast
5:54 PM 68.0 °F 63.0 °F 84% 29.90 in 10.0 mi South 11.5 mph - N/A   Overcast
6:54 PM 66.0 °F 62.1 °F 87% 29.91 in 10.0 mi South 10.4 mph - N/A   Mostly Cloudy
7:54 PM 64.9 °F 61.0 °F 87% 29.92 in 10.0 mi SSE 10.4 mph - N/A   Clear
8:54 PM 64.9 °F 61.0 °F 87% 29.92 in 10.0 mi South 10.4 mph - N/A   Clear
9:54 PM 66.0 °F 61.0 °F 84% 29.92 in 10.0 mi South 11.5 mph - N/A   Clear
10:54 PM 66.0 °F 60.1 °F 81% 29.93 in 10.0 mi South 12.7 mph - N/A   Clear
11:54 PM 66.0 °F 60.1 °F 81% 29.93 in 10.0 mi SSW 13.8 mph - N/A   Clear